Weather History for Evansville, IN

Change the Weather History Date:

Tuesday, February 21, 2012

  Actual Average Record
Temperature  
Mean Temperature 44 °F 38 °F  
Max Temperature 51 °F 48 °F 72 °F (1922)
Min Temperature 37 °F 29 °F -3 °F (1963)
Degree Days  
Heating Degree Days 21 27  
Month to date heating degree days 562 618  
Since 1 July heating degree days 2887 3397  
Cooling Degree Days 0 0  
Month to date cooling degree days 0 0  
Year to date cooling degree days 0 0  
Moisture  
Dew Point 36 °F    
Average Humidity 71    
Maximum Humidity 85    
Minimum Humidity 56    
Precipitation  
Precipitation 0.08 in 0.10 in 1.36 in (1950)
Month to date precipitation 1.15 2.39  
Year to date precipitation 4.54 5.49  
Snow  
Snow 0.00 in 0.10 in 0.60 in (1965)
Month to date snowfall 0.2 3.0  
Since 1 July snowfall 0.5 9.9  
Snow Depth 0.00 in    
Sea Level Pressure  
Sea Level Pressure 29.89 in    
Wind  
Wind Speed 12 mph (SSW)    
Max Wind Speed 23 mph    
Max Gust Speed 33 mph    
Visibility 10 miles    
Events Rain    
T = Trace of Precipitation, MM = Missing Value Source: NWS Daily Summary

Daily Weather History Graph

Daily Weather History Graph

Search for Another Location

Airport:

Trip Planner

Search our weather history database for the weather conditions in past years. The results will help you decide how hot, cold, wet, or windy it might be!

Date:

Astronomy

Feb. 21, 2012 Rise Set
Actual Time 6:33 AM CST 5:34 PM CST
Civil Twilight 6:06 AM CST 6:01 PM CST
Nautical Twilight 5:35 AM CST 6:32 PM CST
Astronomical Twilight 5:05 AM CST 7:02 PM CST
Moon 6:02 AM CST (2/21) 5:39 PM CST (2/21)
Length of Visible Light 11h 54m
Length of Day
11h 01m
Waning Crescent, 0% of the Moon is Illuminated
Feb 21
Waning Crescent
Feb 21
New
Feb 29
First Quarter
Mar 8
Full
Mar 14
Last Quarter

Hourly Weather History & Observations

Time (CST) Temp. Windchill Dew Point Humidity Pressure Visibility Wind Dir Wind Speed Gust Speed Precip Events Conditions
12:54 AM 41.0 °F 35.8 °F 28.9 °F 62% 29.94 in 10.0 mi SE 8.1 mph - N/A   Overcast
1:54 AM 43.0 °F 37.7 °F 30.0 °F 60% 29.88 in 10.0 mi SSE 9.2 mph - N/A   Overcast
2:54 AM 45.0 °F 38.2 °F 37.0 °F 74% 29.80 in 10.0 mi SSE 15.0 mph 24.2 mph 0.06 in Rain Light Rain
3:54 AM 45.0 °F 38.5 °F 37.9 °F 76% 29.81 in 10.0 mi South 13.8 mph 21.9 mph 0.02 in   Clear
4:54 AM 46.0 °F 40.6 °F 39.0 °F 76% 29.81 in 10.0 mi SSW 11.5 mph 20.7 mph N/A   Overcast
5:54 AM 46.9 °F - 39.9 °F 77% 29.82 in 10.0 mi SSW 16.1 mph 26.5 mph 0.00 in Rain Light Rain
6:54 AM 46.9 °F - 39.9 °F 77% 29.85 in 10.0 mi WSW 12.7 mph - 0.00 in   Overcast
7:54 AM 48.0 °F - 39.0 °F 71% 29.88 in 10.0 mi SW 16.1 mph 21.9 mph N/A   Overcast
8:54 AM 48.0 °F - 37.9 °F 68% 29.91 in 10.0 mi SW 18.4 mph 23.0 mph N/A   Overcast
9:54 AM 48.0 °F - 36.0 °F 63% 29.92 in 10.0 mi SW 17.3 mph 24.2 mph N/A   Overcast
10:54 AM 50.0 °F - 37.0 °F 61% 29.93 in 10.0 mi WSW 19.6 mph 25.3 mph N/A   Overcast
11:54 AM 50.0 °F - 36.0 °F 59% 29.94 in 10.0 mi SW 16.1 mph 27.6 mph N/A   Overcast
12:54 PM 50.0 °F - 37.0 °F 61% 29.92 in 10.0 mi SW 20.7 mph 28.8 mph N/A   Overcast
1:54 PM 51.1 °F - 37.0 °F 59% 29.91 in 10.0 mi SW 16.1 mph 24.2 mph N/A   Overcast
2:54 PM 50.0 °F - 37.0 °F 61% 29.90 in 10.0 mi SW 16.1 mph 25.3 mph N/A   Overcast
3:54 PM 50.0 °F - 37.0 °F 61% 29.91 in 10.0 mi SW 13.8 mph - N/A   Overcast
4:54 PM 48.9 °F - 37.9 °F 66% 29.91 in 10.0 mi SW 9.2 mph - N/A   Mostly Cloudy
5:54 PM 48.0 °F - 37.0 °F 66% 29.93 in 10.0 mi SSW 6.9 mph - N/A   Clear
6:54 PM 46.4 °F 43.5 °F 37.4 °F 71% 29.92 in 10.0 mi South 5.8 mph - N/A   Clear
7:54 PM 44.1 °F 41.5 °F 37.0 °F 76% 29.93 in 10.0 mi SSW 4.6 mph - N/A   Clear
8:54 PM 42.1 °F - 36.0 °F 79% 29.93 in 10.0 mi Calm Calm - N/A   Clear
9:54 PM 39.9 °F - 35.1 °F 83% 29.92 in 10.0 mi Calm Calm - N/A   Clear
10:54 PM 37.9 °F 32.7 °F 34.0 °F 86% 29.90 in 10.0 mi SSW 6.9 mph - N/A   Clear
11:54 PM 37.9 °F 34.4 °F 34.0 °F 86% 29.89 in 10.0 mi SSW 4.6 mph - N/A   Clear